This demonstration page uses our WeatherBlox Daily Observations layout. Learn more.

Hourly Observations for July 4, 2019

Temp ( °F °C ) Dew Point ( °F °C ) Humidity (%) Winds ( mph kmh ) Pressure ( in mb ) Visibility ( mi km ) Precip ( " mm )
12:15 am 00:15 Clear 72 22 70 21 94 94 SE 8 13 29.77 1008 10 16.09344 0 0
12:35 am 00:35 Clear 72 22 70 21 94 94 SE 8 13 29.77 1008 10 16.09344 0 0
12:55 am 00:55 Clear 72 22 69 20.8 93 93 SE 7 11 29.77 1008 10 16.09344 0 0
1:15 am 01:15 Clear 71 21.5 69 20.7 95 95 SE 6 9 29.8 1009 10 16.09344 0 0
1:35 am 01:35 Clear 71 21.5 69 20.7 95 95 SE 3 6 29.8 1009 10 16.09344 0 0
1:55 am 01:55 Clear 70 21.3 69 20.5 95 95 SE 6 9 29.8 1009 10 16.09344 0 0
2:15 am 02:15 Clear 69 20.7 69 20.3 98 98 Calm 29.8 1009 10 16.09344 0 0
2:35 am 02:35 Clear 69 20.6 69 20.3 98 98 ESE 3 6 29.77 1008 10 16.09344 0 0
2:55 am 02:55 Clear 69 20.5 68 20.1 98 98 ESE 3 6 29.77 1008 10 16.09344 0 0
3:15 am 03:15 Clear 68 20 68 19.8 99 99 ESE 6 9 29.77 1008 10 16.09344 0 0
3:35 am 03:35 Clear 68 19.8 67 19.7 99 99 ESE 5 7 29.77 1008 10 16.09344 0 0
3:55 am 03:55 Clear 67 19.6 67 19.6 100 100 E 5 7 29.77 1008 10 16.09344 0 0
4:15 am 04:15 Clear 67 19.6 67 19.6 100 100 ESE 7 11 29.77 1008 7 11.265408 0 0
4:35 am 04:35 Clear 67 19.6 67 19.6 100 100 ESE 8 13 29.77 1008 7 11.265408 0 0
4:55 am 04:55 Clear 67 19.7 67 19.7 100 100 ESE 7 11 29.77 1008 10 16.09344 0 0
5:15 am 05:15 Clear 67 19.6 67 19.6 100 100 SE 7 11 29.8 1009 10 16.09344 0 0
5:35 am 05:35 Partly Cloudy 67 19.6 67 19.5 99 99 ESE 7 11 29.8 1009 10 16.09344 0 0
5:55 am 05:55 Cloudy 68 20 67 19.7 98 98 E 5 7 29.83 1010 10 16.09344 0 0
6:15 am 06:15 Cloudy 68 20 67 19.7 98 98 E 3 6 29.83 1010 10 16.09344 0 0
6:35 am 06:35 Cloudy 68 20 67 19.7 98 98 NE 7 11 29.85 1011 10 16.09344 0 0
6:55 am 06:55 Mostly Cloudy 67 19.6 67 19.6 100 100 ENE 7 11 29.85 1011 10 16.09344 0 0
7:15 am 07:15 Partly Cloudy 68 20 68 20 100 100 E 6 9 29.83 1010 10 16.09344 0 0
7:35 am 07:35 Mostly Cloudy 68 20 68 20 100 100 ESE 8 13 29.85 1011 10 16.09344 0 0
7:55 am 07:55 Cloudy 68 20.1 68 20.1 100 100 ESE 7 11 29.85 1011 7 11.265408 0 0
8:15 am 08:15 Cloudy with Mist and Fog 69 20.3 69 20.3 100 100 ENE 3 6 29.88 1012 5 8.04672 0 0
8:35 am 08:35 Cloudy 69 20.3 69 20.3 100 100 ENE 7 11 29.88 1012 7 11.265408 0 0
8:55 am 08:55 Cloudy 69 20.5 69 20.5 100 100 ESE 8 13 29.88 1012 7 11.265408 0 0
9:15 am 09:15 Cloudy 69 20.7 69 20.5 99 99 E 7 11 29.91 1013 10 16.09344 0 0
9:35 am 09:35 Cloudy 71 21.6 70 21 96 96 ESE 10 17 29.88 1012 10 16.09344 0 0
9:55 am 09:55 Cloudy 71 21.5 69 20.7 95 95 E 10 17 29.88 1012 10 16.09344 0 0
10:15 am 10:15 Cloudy 71 21.6 69 20.8 95 95 ESE 12 19 29.88 1012 10 16.09344 0 0
10:35 am 10:35 Cloudy with Mist and Fog 70 21.1 69 20.3 95 95 NE 12 19 29.88 1012 5 8.04672 0 0
10:55 am 10:55 Cloudy 68 20 67 19.6 98 98 ENE 10 17 29.88 1012 7 11.265408 0 0
11:15 am 11:15 Cloudy 69 20.4 68 20 98 98 ENE 13 20 29.88 1012 10 16.09344 0 0
11:35 am 11:35 Cloudy 72 22 69 20.5 91 91 E 10 17 29.88 1012 10 16.09344 0 0
11:55 am 11:55 Cloudy 72 22.2 69 20.7 91 91 E 8 13 29.88 1012 10 16.09344 0 0
12:15 pm 12:15 Cloudy 75 23.7 69 20.8 84 84 E 12 19 29.85 1011 10 16.09344 0 0
12:35 pm 12:35 Cloudy 76 24.6 69 20.6 78 78 ESE 9 15 29.85 1011 10 16.09344 0 0
12:55 pm 12:55 Cloudy 78 25.5 69 20.4 73 73 ESE 13 20 29.85 1011 10 16.09344 0 0
1:15 pm 13:15 Mostly Cloudy 78 25.8 69 20.4 72 72 E 12 19 29.85 1011 10 16.09344 0 0
1:35 pm 13:35 Mostly Cloudy 80 26.8 68 20.1 67 67 ESE 13 20 29.8 1009 10 16.09344 0 0
1:55 pm 13:55 Partly Cloudy 81 27.3 67 19.6 63 63 SE 9 15 29.8 1009 10 16.09344 0 0
2:15 pm 14:15 Partly Cloudy 83 28.2 68 19.8 60 60 SE 12 19 29.8 1009 10 16.09344 0 0
2:35 pm 14:35 Sunny 83 28.5 67 19.3 57 57 SE 13 20 29.8 1009 10 16.09344 0 0
2:55 pm 14:55 Sunny 84 28.7 67 19.6 58 58 SE 14 22 29.8 1009 10 16.09344 0 0
3:15 pm 15:15 Sunny 85 29.2 68 20.2 58 58 SSE 12 19 29.77 1008 10 16.09344 0 0
3:35 pm 15:35 Partly Cloudy 85 29.7 69 20.3 57 57 SSE 15 24 29.74 1007 10 16.09344 0 0
3:55 pm 15:55 Partly Cloudy 86 29.8 69 20.5 57 57 S 14 22 29.74 1007 10 16.09344 0 0
4:15 pm 16:15 Partly Cloudy 85 29.6 69 20.3 57 57 SSE 9 15 29.77 1008 10 16.09344 0 0
4:35 pm 16:35 Mostly Cloudy 85 29.4 69 20.4 58 58 SE 12 19 29.77 1008 10 16.09344 0 0
4:55 pm 16:55 Mostly Cloudy 87 30.3 70 21.1 58 58 SSE 9 15 29.77 1008 10 16.09344 0 0
5:15 pm 17:15 Mostly Cloudy 85 29.2 70 21 61 61 SE 8 13 29.77 1008 10 16.09344 0 0
5:35 pm 17:35 Partly Cloudy 86 30.1 70 21.2 59 59 ESE 8 13 29.74 1007 10 16.09344 0 0
5:55 pm 17:55 Mostly Cloudy 86 29.9 71 21.6 61 61 ESE 9 15 29.74 1007 10 16.09344 0 0
6:15 pm 18:15 Partly Cloudy 87 30.4 70 21.2 58 58 SSE 8 13 29.74 1007 10 16.09344 0 0
6:35 pm 18:35 Mostly Cloudy 86 30 70 20.9 58 58 SE 10 17 29.74 1007 10 16.09344 0 0
6:55 pm 18:55 Mostly Cloudy 85 29.5 70 21.1 61 61 SE 7 11 29.77 1008 10 16.09344 0 0
7:15 pm 19:15 Partly Cloudy 84 28.8 70 21 63 63 SSE 6 9 29.77 1008 10 16.09344 0 0
7:35 pm 19:35 Sunny 85 29.5 70 21.1 61 61 SSE 10 17 29.77 1008 10 16.09344 0 0
7:55 pm 19:55 Sunny 84 29 70 21 62 62 SE 7 11 29.8 1009 10 16.09344 0 0
8:15 pm 20:15 Sunny 83 28.6 70 21.1 64 64 SE 6 9 29.8 1009 10 16.09344 0 0
8:35 pm 20:35 Sunny 81 27.2 71 21.7 72 72 E 7 11 29.8 1009 10 16.09344 0 0
8:55 pm 20:55 Sunny 80 26.5 71 21.8 75 75 E 7 11 29.8 1009 10 16.09344 0 0
9:15 pm 21:15 Partly Cloudy 79 25.9 71 21.7 78 78 E 7 11 29.83 1010 10 16.09344 0 0
9:35 pm 21:35 Cloudy 78 25.8 71 21.6 78 78 E 9 15 29.85 1011 10 16.09344 0 0
9:55 pm 21:55 Cloudy 78 25.8 71 21.8 79 79 E 12 19 29.85 1011 10 16.09344 0 0
10:15 pm 22:15 Cloudy 78 25.8 72 22 80 80 E 13 20 29.85 1011 10 16.09344 0 0
10:35 pm 22:35 Cloudy 78 25.6 71 21.9 80 80 E 13 20 29.85 1011 10 16.09344 0 0
10:55 pm 22:55 Cloudy with Thunderstorms 77 25.2 72 22 82 82 E 14 22 29.85 1011 10 16.09344 0 0
11:15 pm 23:15 Cloudy with Thunderstorms 77 25 72 22.1 84 84 E 15 24 29.85 1011 10 16.09344 0 0
11:35 pm 23:35 Cloudy with Thunderstorms 77 24.9 72 22.1 85 85 E 12 19 29.85 1011 10 16.09344 0 0
11:55 pm 23:55 Cloudy with Thunderstorms 76 24.6 72 22.2 87 87 ENE 14 22 29.88 1012 10 16.09344 0 0

Powered by AerisWeather